Time,TemperatureF,DewpointF,PressureIn,WindDirection,WindDirectionDegrees,WindSpeedMPH,WindSpeedGustMPH,Humidity,HourlyPrecipIn,Conditions,Clouds,dailyrainin,SoftwareType,DateUTC
2013-02-01 00:02:00,-9.8,-25.3,30.03,NNW,331,8.1,8.1,45,0.00,,,0.00,VWS V14.01,2013-02-01 06:02:00,
2013-02-01 00:07:00,-10.1,-25.6,30.03,WNW,291,7.6,7.6,45,0.00,,,0.00,VWS V14.01,2013-02-01 06:07:00,
2013-02-01 00:12:00,-10.5,-26.0,30.03,WNW,297,6.3,6.3,45,0.00,,,0.00,VWS V14.01,2013-02-01 06:12:00,
2013-02-01 00:17:00,-10.7,-26.1,30.03,WNW,298,5.8,5.8,45,0.00,,,0.00,VWS V14.01,2013-02-01 06:17:00,
2013-02-01 00:22:00,-10.8,-26.3,30.03,West,275,5.8,5.8,45,0.00,,,0.00,VWS V14.01,2013-02-01 06:22:00,
2013-02-01 00:27:00,-11.0,-26.4,30.03,WNW,288,7.6,7.6,45,0.00,,,0.00,VWS V14.01,2013-02-01 06:27:00,
2013-02-01 00:32:00,-11.2,-26.6,30.03,West,275,10.5,10.5,45,0.00,,,0.00,VWS V14.01,2013-02-01 06:32:00,
2013-02-01 00:37:00,-11.2,-26.6,30.06,WSW,243,5.8,5.8,45,0.00,,,0.00,VWS V14.01,2013-02-01 06:37:00,
2013-02-01 00:42:00,-11.4,-26.8,30.06,West,266,5.4,5.4,45,0.00,,,0.00,VWS V14.01,2013-02-01 06:42:00,
2013-02-01 00:47:00,-11.7,-27.1,30.06,WSW,255,8.1,8.1,45,0.00,,,0.00,VWS V14.01,2013-02-01 06:47:00,
2013-02-01 00:52:00,-11.7,-27.1,30.06,NW,304,12.3,12.3,45,0.00,,,0.00,VWS V14.01,2013-02-01 06:52:00,
2013-02-01 00:57:00,-11.9,-27.3,30.06,WSW,251,5.4,11.0,45,0.00,,,0.00,VWS V14.01,2013-02-01 06:57:00,
2013-02-01 01:02:00,-12.1,-27.4,30.06,West,280,4.0,6.3,45,0.00,,,0.00,VWS V14.01,2013-02-01 07:02:00,
2013-02-01 01:07:00,-12.3,-27.6,30.06,WNW,295,5.8,5.8,45,0.00,,,0.00,VWS V14.01,2013-02-01 07:07:00,
2013-02-01 01:12:00,-12.5,-27.8,30.06,WSW,255,5.8,5.8,45,0.00,,,0.00,VWS V14.01,2013-02-01 07:12:00,
2013-02-01 01:17:00,-12.6,-27.9,30.06,WNW,287,4.0,4.0,45,0.00,,,0.00,VWS V14.01,2013-02-01 07:17:00,
2013-02-01 01:22:00,-12.8,-28.1,30.06,West,278,5.8,8.3,45,0.00,,,0.00,VWS V14.01,2013-02-01 07:22:00,
2013-02-01 01:28:00,-12.8,-28.1,30.06,West,267,6.3,6.3,45,0.00,,,0.00,VWS V14.01,2013-02-01 07:28:00,
2013-02-01 01:33:00,-12.8,-28.1,30.06,West,278,5.8,5.8,45,0.00,,,0.00,VWS V14.01,2013-02-01 07:33:00,
2013-02-01 01:38:00,-12.8,-28.1,30.06,WNW,282,8.1,8.1,45,0.00,,,0.00,VWS V14.01,2013-02-01 07:38:00,
2013-02-01 01:43:00,-13.2,-28.4,30.06,West,274,5.4,6.3,45,0.00,,,0.00,VWS V14.01,2013-02-01 07:43:00,
2013-02-01 01:48:00,-13.5,-28.8,30.06,West,265,5.4,5.4,45,0.00,,,0.00,VWS V14.01,2013-02-01 07:48:00,
2013-02-01 01:53:00,-13.7,-28.9,30.06,WSW,255,8.3,8.3,45,0.00,,,0.00,VWS V14.01,2013-02-01 07:53:00,
2013-02-01 01:58:00,-13.9,-29.1,30.06,WSW,243,7.6,9.2,45,0.00,,,0.00,VWS V14.01,2013-02-01 07:58:00,
2013-02-01 02:03:00,-13.9,-29.1,30.06,West,268,5.4,7.2,45,0.00,,,0.00,VWS V14.01,2013-02-01 08:03:00,
2013-02-01 02:08:00,-13.9,-29.1,30.06,SW,230,6.3,6.3,45,0.00,,,0.00,VWS V14.01,2013-02-01 08:08:00,
2013-02-01 02:13:00,-14.3,-29.4,30.06,West,279,6.3,6.3,45,0.00,,,0.00,VWS V14.01,2013-02-01 08:13:00,
2013-02-01 02:18:00,-14.4,-29.6,30.06,WNW,283,8.3,10.1,45,0.00,,,0.00,VWS V14.01,2013-02-01 08:18:00,
2013-02-01 02:23:00,-14.4,-29.6,30.06,WSW,244,5.8,8.1,45,0.00,,,0.00,VWS V14.01,2013-02-01 08:23:00,
2013-02-01 02:28:00,-14.4,-29.6,30.06,WNW,285,5.8,5.8,45,0.00,,,0.00,VWS V14.01,2013-02-01 08:28:00,
2013-02-01 02:33:00,-14.4,-29.6,30.06,WSW,244,5.8,5.8,45,0.00,,,0.00,VWS V14.01,2013-02-01 08:33:00,
2013-02-01 02:38:00,-14.6,-29.8,30.09,WSW,245,9.2,9.2,45,0.00,,,0.00,VWS V14.01,2013-02-01 08:38:00,
2013-02-01 02:43:00,-15.0,-30.1,30.09,SW,234,7.6,7.6,45,0.00,,,0.00,VWS V14.01,2013-02-01 08:43:00,
2013-02-01 02:48:00,-15.0,-30.1,30.09,West,264,3.1,8.3,45,0.00,,,0.00,VWS V14.01,2013-02-01 08:48:00,
2013-02-01 02:53:00,-15.0,-30.1,30.09,West,263,8.1,8.1,45,0.00,,,0.00,VWS V14.01,2013-02-01 08:53:00,
2013-02-01 02:58:00,-15.2,-30.3,30.09,West,274,6.3,8.1,45,0.00,,,0.00,VWS V14.01,2013-02-01 08:58:00,
2013-02-01 03:03:00,-15.2,-30.3,30.09,WSW,241,8.7,8.7,45,0.00,,,0.00,VWS V14.01,2013-02-01 09:03:00,
2013-02-01 03:08:00,-15.3,-30.4,30.09,West,259,6.3,7.2,45,0.00,,,0.00,VWS V14.01,2013-02-01 09:08:00,
2013-02-01 03:13:00,-15.5,-30.6,30.09,WSW,254,5.4,5.4,45,0.00,,,0.00,VWS V14.01,2013-02-01 09:13:00,
2013-02-01 03:18:00,-15.5,-30.6,30.09,WSW,246,3.1,6.7,45,0.00,,,0.00,VWS V14.01,2013-02-01 09:18:00,
2013-02-01 03:23:00,-15.9,-30.9,30.09,West,262,5.8,5.8,45,0.00,,,0.00,VWS V14.01,2013-02-01 09:23:00,
2013-02-01 03:28:00,-16.1,-31.1,30.09,West,271,6.3,6.3,45,0.00,,,0.00,VWS V14.01,2013-02-01 09:28:00,
2013-02-01 03:33:00,-16.1,-31.1,30.09,West,269,8.3,8.3,45,0.00,,,0.00,VWS V14.01,2013-02-01 09:33:00,
2013-02-01 03:38:00,-16.1,-31.1,30.09,West,278,5.8,8.3,45,0.00,,,0.00,VWS V14.01,2013-02-01 09:38:00,
2013-02-01 03:43:00,-16.2,-31.3,30.09,WNW,286,10.1,10.1,45,0.00,,,0.00,VWS V14.01,2013-02-01 09:43:00,
2013-02-01 03:48:00,-16.2,-31.3,30.09,West,279,4.9,8.3,45,0.00,,,0.00,VWS V14.01,2013-02-01 09:48:00,
2013-02-01 03:53:00,-16.2,-31.3,30.09,SW,235,3.6,8.3,45,0.00,,,0.00,VWS V14.01,2013-02-01 09:53:00,
2013-02-01 03:58:00,-16.4,-31.4,30.09,WSW,250,5.4,8.3,45,0.00,,,0.00,VWS V14.01,2013-02-01 09:58:00,
2013-02-01 04:03:00,-16.6,-31.6,30.09,WNW,299,7.6,7.6,45,0.00,,,0.00,VWS V14.01,2013-02-01 10:03:00,
2013-02-01 04:08:00,-16.8,-31.8,30.09,WNW,299,7.2,7.2,45,0.00,,,0.00,VWS V14.01,2013-02-01 10:08:00,
2013-02-01 04:13:00,-16.8,-31.8,30.09,SW,234,4.0,4.0,45,0.00,,,0.00,VWS V14.01,2013-02-01 10:13:00,
2013-02-01 04:18:00,-16.8,-31.8,30.09,West,268,4.0,4.0,45,0.00,,,0.00,VWS V14.01,2013-02-01 10:18:00,
2013-02-01 04:23:00,-17.0,-31.9,30.09,West,281,8.3,8.3,45,0.00,,,0.00,VWS V14.01,2013-02-01 10:23:00,
2013-02-01 04:28:00,-17.1,-32.1,30.09,WSW,254,5.4,5.4,45,0.00,,,0.00,VWS V14.01,2013-02-01 10:28:00,
2013-02-01 04:33:00,-17.3,-32.3,30.09,West,266,8.1,8.1,45,0.00,,,0.00,VWS V14.01,2013-02-01 10:33:00,
2013-02-01 04:38:00,-17.5,-32.4,30.09,West,271,4.0,4.0,45,0.00,,,0.00,VWS V14.01,2013-02-01 10:38:00,
2013-02-01 04:43:00,-17.5,-32.4,30.09,WSW,243,2.7,3.1,45,0.00,,,0.00,VWS V14.01,2013-02-01 10:43:00,
2013-02-01 04:48:00,-17.5,-32.4,30.09,WSW,250,4.0,4.0,45,0.00,,,0.00,VWS V14.01,2013-02-01 10:48:00,
2013-02-01 04:53:00,-17.9,-32.8,30.09,West,261,4.0,4.0,45,0.00,,,0.00,VWS V14.01,2013-02-01 10:53:00,
2013-02-01 04:58:00,-18.0,-32.9,30.09,West,264,4.0,4.0,45,0.00,,,0.00,VWS V14.01,2013-02-01 10:58:00,
2013-02-01 05:03:00,-18.0,-32.9,30.09,West,259,3.1,3.1,45,0.00,,,0.00,VWS V14.01,2013-02-01 11:03:00,
2013-02-01 05:08:00,-18.2,-33.1,30.09,West,280,4.0,4.0,45,0.00,,,0.00,VWS V14.01,2013-02-01 11:08:00,
2013-02-01 05:13:00,-18.2,-33.1,30.09,WSW,258,2.2,3.6,45,0.00,,,0.00,VWS V14.01,2013-02-01 11:13:00,
2013-02-01 05:18:00,-18.4,-33.3,30.09,WSW,257,3.1,3.1,45,0.00,,,0.00,VWS V14.01,2013-02-01 11:18:00,
2013-02-01 05:23:00,-18.6,-33.4,30.09,WSW,249,0.0,0.0,45,0.00,,,0.00,VWS V14.01,2013-02-01 11:23:00,
2013-02-01 05:28:00,-18.6,-33.4,30.09,WSW,241,2.7,2.7,45,0.00,,,0.00,VWS V14.01,2013-02-01 11:28:00,
2013-02-01 05:33:00,-18.8,-33.6,30.09,WSW,244,3.6,3.6,45,0.00,,,0.00,VWS V14.01,2013-02-01 11:33:00,
2013-02-01 05:38:00,-18.9,-33.8,30.09,WSW,251,3.6,3.6,45,0.00,,,0.00,VWS V14.01,2013-02-01 11:38:00,
2013-02-01 05:43:00,-18.9,-33.8,30.09,SW,231,4.0,4.0,45,0.00,,,0.00,VWS V14.01,2013-02-01 11:43:00,
2013-02-01 05:48:00,-19.1,-33.9,30.09,WSW,252,3.6,4.0,45,0.00,,,0.00,VWS V14.01,2013-02-01 11:48:00,
2013-02-01 05:53:00,-19.1,-33.9,30.09,West,265,5.8,5.8,45,0.00,,,0.00,VWS V14.01,2013-02-01 11:53:00,
2013-02-01 05:58:00,-19.1,-33.9,30.09,WSW,237,7.6,7.6,45,0.00,,,0.00,VWS V14.01,2013-02-01 11:58:00,
2013-02-01 06:03:00,-19.1,-33.9,30.09,WSW,252,5.8,5.8,45,0.00,,,0.00,VWS V14.01,2013-02-01 12:03:00,
2013-02-01 06:08:00,-19.1,-33.9,30.09,WSW,250,8.1,8.1,45,0.00,,,0.00,VWS V14.01,2013-02-01 12:08:00,
2013-02-01 06:13:00,-19.1,-33.9,30.09,West,265,3.6,3.6,45,0.00,,,0.00,VWS V14.01,2013-02-01 12:13:00,
2013-02-01 06:18:00,-19.1,-33.9,30.09,WSW,258,6.3,6.3,45,0.00,,,0.00,VWS V14.01,2013-02-01 12:18:00,
2013-02-01 06:23:00,-19.1,-33.9,30.09,West,267,4.0,4.0,45,0.00,,,0.00,VWS V14.01,2013-02-01 12:23:00,
2013-02-01 06:28:00,-19.3,-34.1,30.09,West,266,2.7,2.7,45,0.00,,,0.00,VWS V14.01,2013-02-01 12:28:00,
2013-02-01 06:33:00,-19.3,-34.1,30.09,WSW,256,6.3,6.3,45,0.00,,,0.00,VWS V14.01,2013-02-01 12:33:00,
2013-02-01 06:38:00,-19.3,-34.1,30.09,WSW,258,5.8,5.8,45,0.00,,,0.00,VWS V14.01,2013-02-01 12:38:00,
2013-02-01 06:43:00,-19.3,-34.1,30.09,West,261,4.9,4.9,45,0.00,,,0.00,VWS V14.01,2013-02-01 12:43:00,
2013-02-01 06:48:00,-19.3,-34.1,30.09,WSW,250,7.6,7.6,45,0.00,,,0.00,VWS V14.01,2013-02-01 12:48:00,
2013-02-01 06:53:00,-19.5,-34.3,30.09,WSW,252,4.0,4.0,45,0.00,,,0.00,VWS V14.01,2013-02-01 12:53:00,
2013-02-01 06:58:00,-19.7,-34.4,30.12,WSW,258,7.6,7.6,45,0.00,,,0.00,VWS V14.01,2013-02-01 12:58:00,
2013-02-01 07:03:00,-19.7,-34.4,30.12,West,280,5.4,5.4,45,0.00,,,0.00,VWS V14.01,2013-02-01 13:03:00,
2013-02-01 07:08:00,-19.8,-34.6,30.12,WSW,248,5.8,6.7,45,0.00,,,0.00,VWS V14.01,2013-02-01 13:08:00,
2013-02-01 07:13:00,-19.8,-34.6,30.12,WSW,252,4.0,4.0,45,0.00,,,0.00,VWS V14.01,2013-02-01 13:13:00,
2013-02-01 07:18:00,-19.8,-34.6,30.12,WSW,250,5.4,5.4,45,0.00,,,0.00,VWS V14.01,2013-02-01 13:18:00,
2013-02-01 07:23:00,-19.8,-34.6,30.12,WSW,238,8.3,8.3,45,0.00,,,0.00,VWS V14.01,2013-02-01 13:23:00,
2013-02-01 07:28:00,-19.8,-34.6,30.12,WSW,257,7.6,7.6,45,0.00,,,0.00,VWS V14.01,2013-02-01 13:28:00,
2013-02-01 07:33:00,-19.8,-34.6,30.12,WSW,249,5.4,5.4,45,0.00,,,0.00,VWS V14.01,2013-02-01 13:33:00,
2013-02-01 07:38:00,-19.8,-34.6,30.12,West,264,7.2,7.2,45,0.00,,,0.00,VWS V14.01,2013-02-01 13:38:00,
2013-02-01 07:43:00,-19.8,-34.6,30.12,WSW,257,5.4,5.4,45,0.00,,,0.00,VWS V14.01,2013-02-01 13:43:00,
2013-02-01 07:48:00,-19.7,-34.4,30.12,West,267,8.3,8.3,45,0.00,,,0.00,VWS V14.01,2013-02-01 13:48:00,
2013-02-01 07:53:00,-19.7,-34.4,30.12,West,266,8.1,8.1,45,0.00,,,0.00,VWS V14.01,2013-02-01 13:53:00,
2013-02-01 07:58:00,-19.7,-34.4,30.12,WSW,257,5.8,5.8,45,0.00,,,0.00,VWS V14.01,2013-02-01 13:58:00,
2013-02-01 08:03:00,-19.1,-33.9,30.12,West,265,5.4,5.4,45,0.00,,,0.00,VWS V14.01,2013-02-01 14:03:00,
2013-02-01 08:08:00,-18.9,-33.8,30.12,SW,225,5.4,5.8,45,0.00,,,0.00,VWS V14.01,2013-02-01 14:08:00,
2013-02-01 08:13:00,-18.8,-33.6,30.12,WSW,240,8.3,8.3,45,0.00,,,0.00,VWS V14.01,2013-02-01 14:13:00,
2013-02-01 08:18:00,-18.8,-33.6,30.12,WSW,254,4.0,5.4,45,0.00,,,0.00,VWS V14.01,2013-02-01 14:18:00,
2013-02-01 08:23:00,-18.8,-33.6,30.12,West,261,7.2,8.7,45,0.00,,,0.00,VWS V14.01,2013-02-01 14:23:00,
2013-02-01 08:28:00,-17.9,-32.8,30.12,WSW,255,8.1,8.1,45,0.00,,,0.00,VWS V14.01,2013-02-01 14:28:00,
2013-02-01 08:33:00,-17.7,-32.6,30.12,WSW,257,8.1,8.1,45,0.00,,,0.00,VWS V14.01,2013-02-01 14:33:00,
2013-02-01 08:38:00,-17.7,-32.6,30.12,West,264,8.1,11.0,45,0.00,,,0.00,VWS V14.01,2013-02-01 14:38:00,
2013-02-01 08:43:00,-17.5,-32.4,30.12,WSW,253,7.6,10.1,45,0.00,,,0.00,VWS V14.01,2013-02-01 14:43:00,
2013-02-01 08:48:00,-17.3,-32.3,30.12,West,259,8.7,8.7,45,0.00,,,0.00,VWS V14.01,2013-02-01 14:48:00,
2013-02-01 08:53:00,-17.1,-32.1,30.12,SW,226,4.0,8.3,45,0.00,,,0.00,VWS V14.01,2013-02-01 14:53:00,
2013-02-01 08:58:00,-16.6,-31.6,30.12,WSW,255,8.1,8.1,45,0.00,,,0.00,VWS V14.01,2013-02-01 14:58:00,
2013-02-01 09:03:00,-16.6,-31.6,30.12,West,265,10.5,10.5,45,0.00,,,0.00,VWS V14.01,2013-02-01 15:03:00,
2013-02-01 09:08:00,-16.6,-31.6,30.12,West,269,9.2,9.2,45,0.00,,,0.00,VWS V14.01,2013-02-01 15:08:00,
2013-02-01 09:13:00,-16.4,-31.4,30.12,WSW,251,12.8,12.8,45,0.00,,,0.00,VWS V14.01,2013-02-01 15:13:00,
2013-02-01 09:18:00,-16.1,-31.1,30.12,West,279,10.5,10.5,45,0.00,,,0.00,VWS V14.01,2013-02-01 15:18:00,
2013-02-01 09:23:00,-16.1,-31.1,30.12,West,277,7.2,8.7,45,0.00,,,0.00,VWS V14.01,2013-02-01 15:23:00,
2013-02-01 09:29:00,-15.7,-30.8,30.12,SW,229,5.4,6.3,45,0.00,,,0.00,VWS V14.01,2013-02-01 15:29:00,
2013-02-01 09:34:00,-15.3,-30.4,30.12,WSW,254,6.3,6.3,45,0.00,,,0.00,VWS V14.01,2013-02-01 15:34:00,
2013-02-01 09:39:00,-15.2,-30.3,30.12,West,261,8.3,8.3,45,0.00,,,0.00,VWS V14.01,2013-02-01 15:39:00,
2013-02-01 09:44:00,-15.0,-30.1,30.09,West,266,4.0,8.7,45,0.00,,,0.00,VWS V14.01,2013-02-01 15:44:00,
2013-02-01 09:49:00,-15.0,-30.1,30.09,WSW,243,6.3,7.6,45,0.00,,,0.00,VWS V14.01,2013-02-01 15:49:00,
2013-02-01 09:54:00,-14.4,-29.6,30.09,West,266,6.7,6.7,45,0.00,,,0.00,VWS V14.01,2013-02-01 15:54:00,
2013-02-01 09:59:00,-14.4,-29.6,30.09,West,266,8.1,8.1,45,0.00,,,0.00,VWS V14.01,2013-02-01 15:59:00,
2013-02-01 10:04:00,-13.9,-29.1,30.09,WSW,246,5.8,5.8,45,0.00,,,0.00,VWS V14.01,2013-02-01 16:04:00,
2013-02-01 10:09:00,-13.9,-29.1,30.09,WSW,258,6.7,8.1,45,0.00,,,0.00,VWS V14.01,2013-02-01 16:09:00,
2013-02-01 10:14:00,-13.9,-29.1,30.09,WSW,240,7.6,8.7,45,0.00,,,0.00,VWS V14.01,2013-02-01 16:14:00,
2013-02-01 10:19:00,-13.4,-28.6,30.09,WSW,246,8.3,8.3,45,0.00,,,0.00,VWS V14.01,2013-02-01 16:19:00,
2013-02-01 10:24:00,-13.4,-28.6,30.09,WSW,247,6.3,6.3,45,0.00,,,0.00,VWS V14.01,2013-02-01 16:24:00,
2013-02-01 10:29:00,-12.8,-28.1,30.09,SW,233,4.0,5.4,45,0.00,,,0.00,VWS V14.01,2013-02-01 16:29:00,
2013-02-01 10:34:00,-12.8,-28.1,30.09,WNW,290,4.0,6.3,45,0.00,,,0.00,VWS V14.01,2013-02-01 16:34:00,
2013-02-01 10:39:00,-12.5,-27.8,30.09,WSW,252,7.2,7.2,45,0.00,,,0.00,VWS V14.01,2013-02-01 16:39:00,
2013-02-01 10:44:00,-12.1,-27.4,30.09,WNW,287,5.8,5.8,45,0.00,,,0.00,VWS V14.01,2013-02-01 16:44:00,
2013-02-01 10:49:00,-11.9,-27.3,30.09,WSW,256,6.3,6.3,45,0.00,,,0.00,VWS V14.01,2013-02-01 16:49:00,
2013-02-01 10:54:00,-12.3,-27.6,30.09,SW,235,4.9,5.8,45,0.00,,,0.00,VWS V14.01,2013-02-01 16:54:00,
2013-02-01 10:59:00,-12.5,-27.8,30.09,SW,232,5.4,5.4,45,0.00,,,0.00,VWS V14.01,2013-02-01 16:59:00,
2013-02-01 11:04:00,-11.7,-27.1,30.09,SW,232,5.8,8.1,45,0.00,,,0.00,VWS V14.01,2013-02-01 17:04:00,
2013-02-01 11:09:00,-11.2,-26.6,30.09,WSW,238,5.8,6.3,45,0.00,,,0.00,VWS V14.01,2013-02-01 17:09:00,
2013-02-01 11:14:00,-10.8,-26.3,30.09,SW,231,8.7,8.7,45,0.00,,,0.00,VWS V14.01,2013-02-01 17:14:00,
2013-02-01 11:19:00,-10.8,-26.3,30.09,WSW,255,7.6,7.6,45,0.00,,,0.00,VWS V14.01,2013-02-01 17:19:00,
2013-02-01 11:24:00,-10.8,-26.3,30.09,WNW,297,4.0,5.4,45,0.00,,,0.00,VWS V14.01,2013-02-01 17:24:00,
2013-02-01 11:29:00,-10.5,-26.0,30.09,SW,224,4.9,5.8,45,0.00,,,0.00,VWS V14.01,2013-02-01 17:29:00,
2013-02-01 11:34:00,-10.3,-25.8,30.09,WSW,256,3.1,8.7,45,0.00,,,0.00,VWS V14.01,2013-02-01 17:34:00,
2013-02-01 11:39:00,-9.8,-25.3,30.09,WNW,297,6.3,6.3,45,0.00,,,0.00,VWS V14.01,2013-02-01 17:39:00,
2013-02-01 11:44:00,-9.0,-24.6,30.09,West,264,7.6,7.6,45,0.00,,,0.00,VWS V14.01,2013-02-01 17:44:00,
2013-02-01 11:49:00,-9.0,-24.6,30.09,West,269,8.3,8.3,45,0.00,,,0.00,VWS V14.01,2013-02-01 17:49:00,
2013-02-01 11:54:00,-9.6,-25.1,30.06,WSW,252,8.3,8.3,45,0.00,,,0.00,VWS V14.01,2013-02-01 17:54:00,
2013-02-01 11:59:00,-9.0,-24.6,30.06,NW,310,3.1,6.3,45,0.00,,,0.00,VWS V14.01,2013-02-01 17:59:00,
2013-02-01 12:04:00,-8.5,-24.1,30.06,West,261,5.4,6.3,45,0.00,,,0.00,VWS V14.01,2013-02-01 18:04:00,
2013-02-01 12:09:00,-8.0,-23.6,30.06,West,279,8.3,8.3,45,0.00,,,0.00,VWS V14.01,2013-02-01 18:09:00,
2013-02-01 12:14:00,-7.6,-23.3,30.06,West,265,7.6,8.7,45,0.00,,,0.00,VWS V14.01,2013-02-01 18:14:00,
2013-02-01 12:19:00,-7.1,-22.8,30.06,West,281,8.3,8.3,45,0.00,,,0.00,VWS V14.01,2013-02-01 18:19:00,
2013-02-01 12:24:00,-6.9,-22.6,30.06,WSW,257,6.3,6.3,45,0.00,,,0.00,VWS V14.01,2013-02-01 18:24:00,
2013-02-01 12:29:00,-6.3,-22.1,30.06,WNW,285,5.4,6.3,45,0.00,,,0.00,VWS V14.01,2013-02-01 18:29:00,
2013-02-01 12:34:00,-5.6,-21.5,30.06,WSW,243,5.8,5.8,45,0.00,,,0.00,VWS V14.01,2013-02-01 18:34:00,
2013-02-01 12:39:00,-5.1,-21.0,30.06,West,264,5.8,8.3,45,0.00,,,0.00,VWS V14.01,2013-02-01 18:39:00,
2013-02-01 12:44:00,-4.9,-20.8,30.06,West,281,4.9,4.9,45,0.00,,,0.00,VWS V14.01,2013-02-01 18:44:00,
2013-02-01 12:49:00,-4.7,-20.6,30.06,West,263,5.8,5.8,45,0.00,,,0.00,VWS V14.01,2013-02-01 18:49:00,
2013-02-01 12:54:00,-4.7,-20.6,30.03,WSW,243,4.0,5.4,45,0.00,,,0.00,VWS V14.01,2013-02-01 18:54:00,
2013-02-01 12:59:00,-4.4,-20.3,30.03,WNW,282,4.0,4.0,45,0.00,,,0.00,VWS V14.01,2013-02-01 18:59:00,
2013-02-01 13:04:00,-4.2,-20.1,30.03,WSW,251,5.8,5.8,45,0.00,,,0.00,VWS V14.01,2013-02-01 19:04:00,
2013-02-01 13:09:00,-4.4,-20.3,30.03,WNW,302,3.6,3.6,45,0.00,,,0.00,VWS V14.01,2013-02-01 19:09:00,
2013-02-01 13:14:00,-4.4,-20.3,30.03,West,273,4.0,4.0,45,0.00,,,0.00,VWS V14.01,2013-02-01 19:14:00,
2013-02-01 13:19:00,-4.0,-20.0,30.03,WNW,299,3.1,3.1,45,0.00,,,0.00,VWS V14.01,2013-02-01 19:19:00,
2013-02-01 13:24:00,-4.0,-20.0,30.03,WSW,245,5.8,5.8,45,0.00,,,0.00,VWS V14.01,2013-02-01 19:24:00,
2013-02-01 13:29:00,-3.5,-19.5,30.03,NW,323,4.5,6.3,45,0.00,,,0.00,VWS V14.01,2013-02-01 19:29:00,
2013-02-01 13:34:00,-3.5,-19.5,30.03,West,276,4.0,4.0,45,0.00,,,0.00,VWS V14.01,2013-02-01 19:34:00,
2013-02-01 13:39:00,-3.5,-19.5,30.03,NW,311,3.6,3.6,45,0.00,,,0.00,VWS V14.01,2013-02-01 19:39:00,
2013-02-01 13:44:00,-2.9,-19.0,30.03,WSW,253,3.6,3.6,45,0.00,,,0.00,VWS V14.01,2013-02-01 19:44:00,
2013-02-01 13:49:00,-2.7,-18.8,30.01,West,271,7.2,7.2,45,0.00,,,0.00,VWS V14.01,2013-02-01 19:49:00,
2013-02-01 13:54:00,-3.1,-19.1,30.01,WNW,284,5.8,5.8,45,0.00,,,0.00,VWS V14.01,2013-02-01 19:54:00,
2013-02-01 13:59:00,-3.1,-19.1,30.01,WSW,249,3.6,5.4,45,0.00,,,0.00,VWS V14.01,2013-02-01 19:59:00,
2013-02-01 14:04:00,-2.7,-18.8,30.01,WSW,252,3.1,4.0,45,0.00,,,0.00,VWS V14.01,2013-02-01 20:04:00,
2013-02-01 14:09:00,-2.2,-18.3,30.01,West,270,5.4,5.4,45,0.00,,,0.00,VWS V14.01,2013-02-01 20:09:00,
2013-02-01 14:14:00,-1.8,-18.0,30.01,West,272,3.6,4.0,45,0.00,,,0.00,VWS V14.01,2013-02-01 20:14:00,
2013-02-01 14:19:00,-1.7,-17.8,30.01,West,279,6.3,6.3,45,0.00,,,0.00,VWS V14.01,2013-02-01 20:19:00,
2013-02-01 14:24:00,-1.7,-17.8,30.01,West,273,3.6,3.6,45,0.00,,,0.00,VWS V14.01,2013-02-01 20:24:00,
2013-02-01 14:29:00,-1.8,-18.0,30.01,NW,311,4.0,4.0,45,0.00,,,0.00,VWS V14.01,2013-02-01 20:29:00,
2013-02-01 14:34:00,-1.8,-18.0,30.01,NW,310,3.1,3.1,45,0.00,,,0.00,VWS V14.01,2013-02-01 20:34:00,
2013-02-01 14:39:00,-1.3,-17.5,30.01,West,273,3.6,3.6,45,0.00,,,0.00,VWS V14.01,2013-02-01 20:39:00,
2013-02-01 14:44:00,-1.7,-17.8,30.01,NW,310,3.6,3.6,45,0.00,,,0.00,VWS V14.01,2013-02-01 20:44:00,
2013-02-01 14:49:00,-1.8,-18.0,30.01,NW,305,2.7,2.7,45,0.00,,,0.00,VWS V14.01,2013-02-01 20:49:00,
2013-02-01 14:54:00,-1.8,-18.0,30.01,WNW,282,6.3,6.3,45,0.00,,,0.00,VWS V14.01,2013-02-01 20:54:00,
2013-02-01 14:59:00,-1.7,-17.8,30.01,NW,312,4.9,4.9,45,0.00,,,0.00,VWS V14.01,2013-02-01 20:59:00,
2013-02-01 15:04:00,-1.3,-17.5,30.01,SW,231,3.6,3.6,45,0.00,,,0.00,VWS V14.01,2013-02-01 21:04:00,
2013-02-01 15:09:00,-1.3,-17.5,30.01,West,265,6.3,6.3,45,0.00,,,0.00,VWS V14.01,2013-02-01 21:09:00,
2013-02-01 15:14:00,-1.1,-17.3,30.01,West,259,3.6,3.6,45,0.00,,,0.00,VWS V14.01,2013-02-01 21:14:00,
2013-02-01 15:19:00,-1.1,-17.3,30.01,West,274,3.6,3.6,45,0.00,,,0.00,VWS V14.01,2013-02-01 21:19:00,
2013-02-01 15:24:00,-0.8,-17.0,30.01,WNW,292,6.7,6.7,45,0.00,,,0.00,VWS V14.01,2013-02-01 21:24:00,
2013-02-01 15:29:00,-0.8,-17.0,30.01,West,278,5.4,5.4,45,0.00,,,0.00,VWS V14.01,2013-02-01 21:29:00,
2013-02-01 15:34:00,-0.9,-17.1,30.01,WNW,285,3.6,4.9,45,0.00,,,0.00,VWS V14.01,2013-02-01 21:34:00,
2013-02-01 15:39:00,-0.9,-17.1,30.01,WNW,284,5.4,5.4,45,0.00,,,0.00,VWS V14.01,2013-02-01 21:39:00,
2013-02-01 15:44:00,-0.9,-17.1,30.01,West,271,3.6,3.6,45,0.00,,,0.00,VWS V14.01,2013-02-01 21:44:00,
2013-02-01 15:49:00,-1.3,-17.5,30.01,WNW,290,3.6,4.0,45,0.00,,,0.00,VWS V14.01,2013-02-01 21:49:00,
2013-02-01 15:54:00,-1.3,-17.5,30.01,WNW,300,3.6,3.6,45,0.00,,,0.00,VWS V14.01,2013-02-01 21:54:00,
2013-02-01 15:59:00,-1.3,-17.5,30.01,West,265,4.0,4.0,45,0.00,,,0.00,VWS V14.01,2013-02-01 21:59:00,
2013-02-01 16:04:00,-1.3,-17.5,30.01,WSW,256,5.4,5.4,45,0.00,,,0.00,VWS V14.01,2013-02-01 22:04:00,
2013-02-01 16:09:00,-1.3,-17.5,29.98,WSW,256,5.8,5.8,45,0.00,,,0.00,VWS V14.01,2013-02-01 22:09:00,
2013-02-01 16:14:00,-1.1,-17.3,29.98,West,278,3.6,3.6,45,0.00,,,0.00,VWS V14.01,2013-02-01 22:14:00,
2013-02-01 16:19:00,-1.1,-17.3,29.98,WSW,252,4.0,4.0,45,0.00,,,0.00,VWS V14.01,2013-02-01 22:19:00,
2013-02-01 16:24:00,-1.1,-17.3,29.98,West,273,3.6,3.6,45,0.00,,,0.00,VWS V14.01,2013-02-01 22:24:00,
2013-02-01 16:29:00,-1.3,-17.5,29.98,WNW,295,3.1,3.1,45,0.00,,,0.00,VWS V14.01,2013-02-01 22:29:00,
2013-02-01 16:34:00,-1.3,-17.5,29.98,WNW,294,3.6,3.6,45,0.00,,,0.00,VWS V14.01,2013-02-01 22:34:00,
2013-02-01 16:39:00,-1.3,-17.5,29.98,WNW,289,2.2,2.2,45,0.00,,,0.00,VWS V14.01,2013-02-01 22:39:00,
2013-02-01 16:44:00,-1.3,-17.5,29.98,West,280,3.1,3.1,45,0.00,,,0.00,VWS V14.01,2013-02-01 22:44:00,
2013-02-01 16:49:00,-1.3,-17.5,29.98,NW,318,3.6,3.6,45,0.00,,,0.00,VWS V14.01,2013-02-01 22:49:00,
2013-02-01 16:54:00,-1.5,-17.6,29.98,WNW,287,3.6,3.6,45,0.00,,,0.00,VWS V14.01,2013-02-01 22:54:00,
2013-02-01 16:59:00,-1.5,-17.6,29.98,WNW,284,3.1,3.1,45,0.00,,,0.00,VWS V14.01,2013-02-01 22:59:00,
2013-02-01 17:04:00,-1.3,-17.5,29.98,WSW,244,2.2,2.2,45,0.00,,,0.00,VWS V14.01,2013-02-01 23:04:00,
2013-02-01 17:09:00,-1.3,-17.5,29.98,West,263,3.1,3.1,45,0.00,,,0.00,VWS V14.01,2013-02-01 23:09:00,
2013-02-01 17:14:00,-1.3,-17.5,29.98,WNW,287,4.0,4.0,45,0.00,,,0.00,VWS V14.01,2013-02-01 23:14:00,
2013-02-01 17:19:00,-1.5,-17.6,29.98,West,273,0.0,0.0,45,0.00,,,0.00,VWS V14.01,2013-02-01 23:19:00,
2013-02-01 17:24:00,-1.3,-17.5,29.98,West,265,4.5,4.5,45,0.00,,,0.00,VWS V14.01,2013-02-01 23:24:00,
2013-02-01 17:29:00,-1.3,-17.5,29.98,SW,231,4.0,4.0,45,0.00,,,0.00,VWS V14.01,2013-02-01 23:29:00,
2013-02-01 17:34:00,-1.3,-17.5,29.98,WSW,258,4.0,4.0,45,0.00,,,0.00,VWS V14.01,2013-02-01 23:34:00,
2013-02-01 17:39:00,-1.3,-17.5,29.98,WSW,246,5.4,5.4,45,0.00,,,0.00,VWS V14.01,2013-02-01 23:39:00,
2013-02-01 17:44:00,-1.1,-17.3,29.98,SW,232,3.1,4.0,45,0.00,,,0.00,VWS V14.01,2013-02-01 23:44:00,
2013-02-01 17:49:00,-1.1,-17.3,29.98,SW,235,2.7,3.6,45,0.00,,,0.00,VWS V14.01,2013-02-01 23:49:00,
2013-02-01 17:54:00,-1.1,-17.3,29.98,SW,234,5.8,5.8,45,0.00,,,0.00,VWS V14.01,2013-02-01 23:54:00,
2013-02-01 17:59:00,-1.3,-17.5,29.98,SSW,209,3.1,3.1,45,0.00,,,0.00,VWS V14.01,2013-02-01 23:59:00,
2013-02-01 18:04:00,-1.1,-17.3,29.98,WSW,245,5.8,5.8,45,0.00,,,0.00,VWS V14.01,2013-02-02 00:04:00,
2013-02-01 18:09:00,-1.1,-17.3,29.98,SW,214,4.9,4.9,45,0.00,,,0.00,VWS V14.01,2013-02-02 00:09:00,
2013-02-01 18:14:00,-1.1,-17.3,29.98,SW,217,5.4,5.4,45,0.00,,,0.00,VWS V14.01,2013-02-02 00:14:00,
2013-02-01 18:19:00,-1.1,-17.3,29.98,SW,229,4.0,4.0,45,0.00,,,0.00,VWS V14.01,2013-02-02 00:19:00,
2013-02-01 18:24:00,-1.1,-17.3,29.98,SSW,205,5.4,5.4,45,0.00,,,0.00,VWS V14.01,2013-02-02 00:24:00,
2013-02-01 18:29:00,-1.1,-17.3,29.98,SW,226,3.1,3.1,45,0.00,,,0.00,VWS V14.01,2013-02-02 00:29:00,
2013-02-01 18:34:00,-1.1,-17.3,29.98,SSW,207,5.4,5.4,45,0.00,,,0.00,VWS V14.01,2013-02-02 00:34:00,
2013-02-01 18:39:00,-1.3,-17.5,29.98,SSW,211,4.0,4.0,45,0.00,,,0.00,VWS V14.01,2013-02-02 00:39:00,
2013-02-01 18:44:00,-1.3,-17.5,29.98,SSW,200,5.4,5.4,45,0.00,,,0.00,VWS V14.01,2013-02-02 00:44:00,
2013-02-01 18:49:00,-1.3,-17.5,29.98,SW,231,4.9,5.4,45,0.00,,,0.00,VWS V14.01,2013-02-02 00:49:00,
2013-02-01 18:54:00,-1.3,-17.5,29.98,SSW,212,4.5,5.4,45,0.00,,,0.00,VWS V14.01,2013-02-02 00:54:00,
2013-02-01 18:59:00,-1.5,-17.6,29.98,SSW,200,3.1,5.4,45,0.00,,,0.00,VWS V14.01,2013-02-02 00:59:00,
2013-02-01 19:04:00,-1.5,-17.6,29.98,SSW,202,4.0,4.0,45,0.00,,,0.00,VWS V14.01,2013-02-02 01:04:00,
2013-02-01 19:09:00,-1.5,-17.6,29.98,WSW,242,4.9,5.4,45,0.00,,,0.00,VWS V14.01,2013-02-02 01:09:00,
2013-02-01 19:14:00,-1.5,-17.6,29.98,SSW,209,3.6,5.4,45,0.00,,,0.00,VWS V14.01,2013-02-02 01:14:00,
2013-02-01 19:19:00,-1.7,-17.8,29.98,SW,232,7.6,7.6,45,0.00,,,0.00,VWS V14.01,2013-02-02 01:19:00,
2013-02-01 19:24:00,-1.8,-18.0,29.98,WSW,244,5.4,5.4,45,0.00,,,0.00,VWS V14.01,2013-02-02 01:24:00,
2013-02-01 19:29:00,-1.8,-18.0,29.98,SW,227,6.3,6.3,45,0.00,,,0.00,VWS V14.01,2013-02-02 01:29:00,
2013-02-01 19:34:00,-1.8,-18.0,29.98,SW,223,3.6,3.6,45,0.00,,,0.00,VWS V14.01,2013-02-02 01:34:00,
2013-02-01 19:39:00,-1.8,-18.0,29.98,SSW,209,6.3,6.3,45,0.00,,,0.00,VWS V14.01,2013-02-02 01:39:00,
2013-02-01 19:44:00,-1.8,-18.0,29.98,WSW,252,5.8,5.8,45,0.00,,,0.00,VWS V14.01,2013-02-02 01:44:00,
2013-02-01 19:50:00,-2.0,-18.1,29.98,SW,230,4.9,4.9,45,0.00,,,0.00,VWS V14.01,2013-02-02 01:50:00,
2013-02-01 19:55:00,-2.0,-18.1,29.98,SW,235,5.8,5.8,45,0.00,,,0.00,VWS V14.01,2013-02-02 01:55:00,
2013-02-01 20:00:00,-2.2,-18.3,29.98,SW,224,5.4,5.4,45,0.00,,,0.00,VWS V14.01,2013-02-02 02:00:00,
2013-02-01 20:05:00,-2.2,-18.3,29.98,SW,226,4.9,4.9,45,0.00,,,0.00,VWS V14.01,2013-02-02 02:05:00,
2013-02-01 20:10:00,-2.2,-18.3,29.98,SW,226,5.4,6.3,45,0.00,,,0.00,VWS V14.01,2013-02-02 02:10:00,
2013-02-01 20:15:00,-2.2,-18.3,29.98,SW,226,5.8,5.8,45,0.00,,,0.00,VWS V14.01,2013-02-02 02:15:00,
2013-02-01 20:20:00,-2.2,-18.3,29.98,SW,228,6.3,6.3,45,0.00,,,0.00,VWS V14.01,2013-02-02 02:20:00,
2013-02-01 20:25:00,-2.2,-18.3,29.98,WSW,253,4.0,4.9,45,0.00,,,0.00,VWS V14.01,2013-02-02 02:25:00,
2013-02-01 20:30:00,-2.2,-18.3,29.98,SW,218,4.0,5.8,45,0.00,,,0.00,VWS V14.01,2013-02-02 02:30:00,
2013-02-01 20:35:00,-2.2,-18.3,29.98,SW,227,2.7,4.9,45,0.00,,,0.00,VWS V14.01,2013-02-02 02:35:00,
2013-02-01 20:40:00,-2.2,-18.3,29.98,SSW,202,4.9,4.9,45,0.00,,,0.00,VWS V14.01,2013-02-02 02:40:00,
2013-02-01 20:45:00,-2.2,-18.3,29.98,SSW,207,5.8,5.8,45,0.00,,,0.00,VWS V14.01,2013-02-02 02:45:00,
2013-02-01 20:50:00,-2.2,-18.3,29.98,SSW,209,4.0,4.0,45,0.00,,,0.00,VWS V14.01,2013-02-02 02:50:00,
2013-02-01 20:55:00,-2.4,-18.5,29.98,SSW,207,6.3,6.3,45,0.00,,,0.00,VWS V14.01,2013-02-02 02:55:00,
2013-02-01 21:00:00,-2.4,-18.5,29.98,SW,215,4.9,4.9,45,0.00,,,0.00,VWS V14.01,2013-02-02 03:00:00,
2013-02-01 21:05:00,-2.4,-18.5,29.98,SSW,213,5.8,7.6,45,0.00,,,0.00,VWS V14.01,2013-02-02 03:05:00,
2013-02-01 21:10:00,-2.4,-18.5,29.98,SW,227,5.4,5.4,45,0.00,,,0.00,VWS V14.01,2013-02-02 03:10:00,
2013-02-01 21:15:00,-2.4,-18.5,29.98,SW,228,2.7,5.4,45,0.00,,,0.00,VWS V14.01,2013-02-02 03:15:00,
2013-02-01 21:20:00,-2.6,-18.6,29.98,SSW,207,4.0,4.0,45,0.00,,,0.00,VWS V14.01,2013-02-02 03:20:00,
2013-02-01 21:25:00,-2.6,-18.6,29.98,SW,229,5.4,5.4,45,0.00,,,0.00,VWS V14.01,2013-02-02 03:25:00,
2013-02-01 21:30:00,-2.6,-18.6,29.98,WSW,243,4.9,4.9,45,0.00,,,0.00,VWS V14.01,2013-02-02 03:30:00,
2013-02-01 21:35:00,-2.6,-18.6,29.98,SW,235,7.2,7.2,45,0.00,,,0.00,VWS V14.01,2013-02-02 03:35:00,
2013-02-01 21:40:00,-2.6,-18.6,29.98,WSW,238,3.6,3.6,45,0.00,,,0.00,VWS V14.01,2013-02-02 03:40:00,
2013-02-01 21:45:00,-2.6,-18.6,29.98,SSW,208,5.8,5.8,45,0.00,,,0.00,VWS V14.01,2013-02-02 03:45:00,
2013-02-01 21:50:00,-2.6,-18.6,29.98,WSW,250,7.2,7.2,45,0.00,,,0.00,VWS V14.01,2013-02-02 03:50:00,
2013-02-01 21:55:00,-2.6,-18.6,29.98,SSW,203,4.0,7.2,45,0.00,,,0.00,VWS V14.01,2013-02-02 03:55:00,
2013-02-01 22:00:00,-2.6,-18.6,29.98,SSW,208,4.9,5.4,45,0.00,,,0.00,VWS V14.01,2013-02-02 04:00:00,
2013-02-01 22:05:00,-2.6,-18.6,29.98,WSW,238,6.3,6.3,45,0.00,,,0.00,VWS V14.01,2013-02-02 04:05:00,
2013-02-01 22:10:00,-2.6,-18.6,29.98,SW,229,4.9,4.9,45,0.00,,,0.00,VWS V14.01,2013-02-02 04:10:00,
2013-02-01 22:15:00,-2.6,-18.6,29.98,WSW,252,5.8,5.8,45,0.00,,,0.00,VWS V14.01,2013-02-02 04:15:00,
2013-02-01 22:20:00,-2.6,-18.6,29.98,WSW,243,6.3,6.3,45,0.00,,,0.00,VWS V14.01,2013-02-02 04:20:00,
2013-02-01 22:25:00,-2.6,-18.6,29.98,SW,231,4.0,4.0,45,0.00,,,0.00,VWS V14.01,2013-02-02 04:25:00,
2013-02-01 22:30:00,-2.6,-18.6,29.98,WSW,239,4.0,4.0,45,0.00,,,0.00,VWS V14.01,2013-02-02 04:30:00,
2013-02-01 22:35:00,-2.6,-18.6,29.98,SW,216,5.8,5.8,45,0.00,,,0.00,VWS V14.01,2013-02-02 04:35:00,
2013-02-01 22:40:00,-2.6,-18.6,29.98,SW,233,4.0,4.0,45,0.00,,,0.00,VWS V14.01,2013-02-02 04:40:00,
2013-02-01 22:45:00,-2.6,-18.6,29.98,SW,228,5.4,5.4,45,0.00,,,0.00,VWS V14.01,2013-02-02 04:45:00,
2013-02-01 22:50:00,-2.6,-18.6,29.98,SW,227,3.6,3.6,45,0.00,,,0.00,VWS V14.01,2013-02-02 04:50:00,
2013-02-01 22:55:00,-2.6,-18.6,29.98,WSW,238,3.1,3.1,45,0.00,,,0.00,VWS V14.01,2013-02-02 04:55:00,
2013-02-01 23:00:00,-2.6,-18.6,29.98,WSW,246,3.1,3.1,45,0.00,,,0.00,VWS V14.01,2013-02-02 05:00:00,
2013-02-01 23:01:00,-2.6,-18.6,29.98,WSW,246,0.0,0.0,45,0.00,,,0.00,VWS V14.01,2013-02-02 05:01:00,
2013-02-01 23:06:00,-2.6,-18.6,29.98,WNW,288,2.7,3.6,45,0.00,,,0.00,VWS V14.01,2013-02-02 05:06:00,
2013-02-01 23:11:00,-2.4,-18.5,29.98,West,278,2.2,3.1,45,0.00,,,0.00,VWS V14.01,2013-02-02 05:11:00,
2013-02-01 23:16:00,-2.4,-18.5,29.98,West,261,2.7,3.6,45,0.00,,,0.00,VWS V14.01,2013-02-02 05:16:00,
2013-02-01 23:21:00,-2.4,-18.5,29.98,WSW,256,0.0,0.0,45,0.00,,,0.00,VWS V14.01,2013-02-02 05:21:00,
2013-02-01 23:26:00,-2.4,-18.5,29.98,West,274,4.0,4.0,45,0.00,,,0.00,VWS V14.01,2013-02-02 05:26:00,
2013-02-01 23:31:00,-2.4,-18.5,29.98,WNW,284,2.7,3.1,45,0.00,,,0.00,VWS V14.01,2013-02-02 05:31:00,
2013-02-01 23:36:00,-2.4,-18.5,29.98,WNW,293,0.0,0.0,45,0.00,,,0.00,VWS V14.01,2013-02-02 05:36:00,
2013-02-01 23:41:00,-2.4,-18.5,29.98,WNW,288,3.1,3.1,45,0.00,,,0.00,VWS V14.01,2013-02-02 05:41:00,
2013-02-01 23:46:00,-2.6,-18.6,29.98,NW,316,2.7,3.1,45,0.00,,,0.00,VWS V14.01,2013-02-02 05:46:00,
2013-02-01 23:51:00,-2.6,-18.6,29.98,NW,310,0.0,2.2,45,0.00,,,0.00,VWS V14.01,2013-02-02 05:51:00,
2013-02-01 23:56:00,-2.6,-18.6,29.98,NW,319,3.1,3.1,45,0.00,,,0.00,VWS V14.01,2013-02-02 05:56:00,